{"data":{"norad_id":55643,"intl_designator":"2023-021R","name":"STARLINK-5483","alt_names":[],"object_type":"PAYLOAD","status":"ACTIVE","operator":null,"country":"US","launch_date":"2023-02-17","launch_site_code":"AFWTR","launch_vehicle":null,"mission":null,"orbit_class":"UNKNOWN","rcs_meters":null,"size_class":null,"mass_kg":null,"dimensions":null,"purposes":["comms"],"wikipedia_slug":null,"has_3d_model":false,"image_url":null,"decayed_at":null,"tle_current":{"epoch":"2026-05-25T01:00:54.028800Z","epoch_age_seconds":70729,"freshness":"FRESH","line1":"1 55643U 23021R   26145.04229200 -.00000264  00000+0 -14300-4 0  9993","line2":"2 55643  69.9998 352.1257 0002850 268.6130  91.4703 14.98328883180222","mean_motion":14.98328883,"eccentricity":0.000285,"inclination_deg":69.9998,"raan_deg":352.1257,"arg_perigee_deg":268.613,"mean_anomaly_deg":91.4703,"bstar":-1.43e-5,"rev_number":18022,"period_min":96.107070773193,"perigee_km":570.07853921855,"apogee_km":574.0401511353,"semimajor_km":6950.1963451769,"source":"CELESTRAK","updated_at":"2026-05-25T13:38:17.849646Z"}}}